[[{"header":{"parameterUnit":"m.s-1","parameterCategory":1,"la1":30.2991,"la2":30.254,"lo1":-89.0895,"lo2":-89.0444,"dy":0.0017,"dx":0.0017,"nx":28,"ny":28,"refTime":"2023-08-20T21:00:00:Z","depth":0,"parameterNumber":2,"parameterNumberName":"U-component_of_WINDS"},"data":[0,0,0,0,0,0,0,0,0,0,0,0,0,0,0,0,0,0,0,0,0,0,0,0,0,0,0,0,0,0,0,0,0,0,0,0,0,0,0,0,0,0,0,0,0,0,0,0,0,0,0,0,0,0,0,0,0,0,-2.5343,-2.5342,0,-2.5252,-2.5251,-2.525,-2.5171,-2.517,-2.5169,-2.5168,-2.5077,-2.5075,-2.5074,0,0,0,0,0,0,0,0,0,0,0,0,0,-2.5449,-2.5448,-2.5343,-2.5341,-2.534,-2.5253,-2.5251,-2.525,-2.5171,-2.517,-2.5169,-2.5167,-2.5077,-2.5075,-2.5073,0,0,0,0,0,0,0,0,0,0,0,0,0,-2.5386,-2.5447,-2.5343,-2.529,-2.5285,-2.5253,-2.5251,-2.525,-2.5171,-2.517,-2.5168,-2.5167,-2.5078,-2.5075,-2.5073,-2.5087,0,0,-2.5066,-2.5065,0,0,0,0,0,0,0,0,-2.5389,-2.5382,-2.5299,-2.5294,-2.5287,-2.5221,-2.5255,-2.5195,-2.5171,-2.5214,-2.5168,-2.5166,-2.5126,-2.512,-2.5106,-2.5082,-2.5078,-2.5066,-2.5064,-2.5063,-2.5063,0,0,0,0,0,0,0,-2.5394,-2.5385,-2.5307,-2.5298,-2.5291,-2.5272,-2.5262,-2.5244,-2.5179,-2.521,-2.5204,-2.5195,-2.5123,-2.5108,-2.5103,-2.5077,-2.5066,-2.5064,-2.5062,-2.5061,-2.5065,-2.5066,0,0,0,0,0,0,-2.5406,-2.5389,-2.531,-2.5304,-2.5336,-2.5271,-2.526,-2.5244,-2.5179,-2.5168,-2.5196,-2.5191,-2.5113,-2.5106,-2.51,-2.5113,-2.5063,-2.5061,-2.506,-2.5063,-2.5065,-2.5067,0,0,0,0,0,0,-2.5409,-2.54,-2.5313,-2.5345,-2.5333,-2.5271,-2.5254,-2.5243,-2.5228,-2.5168,-2.5156,-2.5193,-2.5112,-2.5103,-2.5091,-2.5109,-2.506,-2.5058,-2.5062,-2.5064,-2.5066,-2.514,0,0,0,0,0,0,-2.5412,-2.5401,-2.5404,-2.5346,-2.5331,-2.5306,-2.5255,-2.5242,-2.5225,-2.5218,-2.5162,-2.5152,-2.511,-2.5095,-2.5089,-2.5105,-2.5056,-2.506,-2.5063,-2.5065,-2.5136,-2.5145,-2.5152,0,0,0,0,0,-2.5416,-2.5428,-2.5405,-2.5396,-2.5334,-2.5307,-2.5299,-2.525,-2.5226,-2.523,-2.5192,-2.5154,-2.5109,-2.5095,-2.5087,-2.5103,-2.5058,-2.5062,-2.5065,-2.5132,-2.5143,-2.5152,0,0,0,0,0,0,-2.5489,-2.5419,-2.5393,-2.5386,-2.5353,-2.5293,-2.5296,-2.5262,-2.5235,-2.523,-2.5171,-2.5159,-2.5155,-2.5127,-2.5114,-2.5115,-2.5079,-2.5081,-2.5132,-2.5142,-2.515,-2.5157,-2.5054,0,0,0,0,0,-2.5505,-2.5488,-2.5428,-2.5428,-2.5413,-2.5358,-2.5344,-2.531,-2.5273,-2.5259,-2.522,-2.5186,-2.5165,-2.5152,-2.5129,-2.5132,-2.5121,-2.514,-2.5148,-2.5155,-2.5157,-2.5161,-2.5169,-2.5078,-2.5078,-2.5078,0,0,-2.5536,-2.5496,-2.5488,-2.5442,-2.5412,-2.5397,-2.5346,-2.5332,-2.5321,-2.5256,-2.5244,-2.5215,-2.5174,-2.5171,-2.5168,-2.5148,-2.518,-2.5159,-2.5165,-2.5164,-2.5165,-2.5174,-2.5182,-2.508,-2.508,-2.5079,0,0,-2.5586,-2.5553,-2.5551,-2.5523,-2.548,-2.5444,-2.5444,-2.539,-2.5368,-2.5355,-2.5308,-2.5295,-2.5258,-2.5232,-2.5214,-2.526,-2.5225,-2.5254,-2.5297,-2.5301,-2.5308,-2.5314,-2.5333,-2.534,-2.5257,-2.5257,-2.5257,0,-2.563,-2.5605,-2.5554,-2.5543,-2.5526,-2.5468,-2.5467,-2.5443,-2.5394,-2.5384,-2.5363,-2.5319,-2.5287,-2.5279,-2.5291,-2.5277,-2.5277,-2.526,-2.5311,-2.5317,-2.5322,-2.5339,-2.5346,-2.5261,-2.5261,-2.526,-2.526,0,-2.5663,-2.5647,-2.5651,-2.5607,-2.5589,-2.5584,-2.5533,-2.5522,-2.5491,-2.5458,-2.5448,-2.5408,-2.5378,-2.5373,-2.5342,-2.5362,-2.5352,-2.5322,-2.5284,-2.5335,-2.535,-2.5356,-2.5267,-2.5265,-2.5264,-2.5263,0,0,-2.5753,-2.5684,-2.5686,-2.5667,-2.5618,-2.5605,-2.5598,-2.5569,-2.5562,-2.5532,-2.5526,-2.5499,-2.5472,-2.5452,-2.5418,-2.5421,-2.5464,-2.5391,-2.5389,-2.5408,-2.5487,-2.5511,-2.5519,-2.5441,-2.5441,-2.5442,-2.5491,0,-2.5795,-2.5779,-2.5736,-2.5734,-2.572,-2.5668,-2.5663,-2.5633,-2.5603,-2.5589,-2.5556,-2.5539,-2.5503,-2.5492,-2.5493,-2.5458,-2.5479,-2.5454,-2.5436,-2.5436,-2.5449,-2.5526,-2.555,-2.5598,-2.5497,-2.5497,-2.5498,0,-2.5841,-2.5817,-2.5814,-2.5769,-2.5761,-2.5757,-2.5729,-2.5715,-2.5682,-2.566,-2.5641,-2.5603,-2.5596,-2.5562,-2.5553,-2.5537,-2.5528,-2.551,-2.5511,-2.5507,-2.547,-2.5526,-2.5611,-2.5619,-2.5507,-2.5506,-2.5505,0,-2.591,-2.5875,-2.587,-2.5855,-2.5802,-2.5801,-2.5779,-2.5744,-2.5731,-2.5707,-2.5698,-2.5674,-2.5661,-2.5644,-2.5602,-2.5581,-2.5599,-2.556,-2.5582,-2.5584,-2.5587,-2.5588,-2.5674,-2.5581,-2.5581,-2.5581,-2.558,0,-2.5962,-2.5963,-2.5901,-2.5898,-2.5898,-2.5849,-2.5852,-2.5825,-2.5795,-2.5788,-2.5741,-2.5735,-2.568,-2.5669,-2.5636,-2.5635,-2.5629,-2.5613,-2.5605,-2.5617,-2.562,-2.561,-2.5606,-2.5582,-2.5582,-2.5582,-2.5581,0,-2.6037,-2.5995,-2.5987,-2.5939,-2.5927,-2.593,-2.5889,-2.5885,-2.5854,-2.5846,-2.5841,-2.5793,-2.5777,-2.5734,-2.5707,-2.5686,-2.5695,-2.5678,-2.5706,-2.5701,-2.5726,-2.5725,-2.5809,-2.5819,-2.5719,-2.572,-2.5721,0,-2.6073,-2.6073,-2.6026,-2.6018,-2.5998,-2.5985,-2.5972,-2.5926,-2.5914,-2.5879,-2.588,-2.5862,-2.5844,-2.5822,-2.5785,-2.5766,-2.5749,-2.578,-2.5745,-2.576,-2.5751,-2.5752,-2.5753,-2.5788,-2.5789,-2.579,-2.5791,0,-2.6142,-2.6123,-2.6106,-2.6083,-2.607,-2.6049,-2.6026,-2.6023,-2.5971,-2.5961,-2.5945,-2.5932,-2.5906,-2.5889,-2.5864,-2.5843,-2.581,-2.5803,-2.5807,-2.582,-2.5837,-2.583,-2.5728,-2.58,-2.5799,-2.5799,-2.5798,-2.5798,-2.6199,-2.6198,-2.6166,-2.615,-2.6129,-2.611,-2.6105,-2.6075,-2.6061,-2.6037,-2.6011,-2.5999,-2.597,-2.5933,-2.5915,-2.5906,-2.5888,-2.5894,-2.5895,-2.5898,-2.5905,-2.5839,-2.5902,-2.5901,-2.5901,-2.5901,-2.59,0,-2.6267,-2.6245,-2.6231,-2.6202,-2.6191,-2.6161,-2.6136,-2.6128,-2.6118,-2.6094,-2.6079,-2.6063,-2.6047,-2.6011,-2.5992,-2.5993,-2.5977,-2.599,-2.5989,-2.5986,-2.5921,-2.592,-2.6003,-2.6003,-2.6003,-2.6003,-2.6003,-2.6003,-2.6301,-2.6299,-2.6277,-2.6265,-2.6243,-2.6231,-2.622,-2.6203,-2.6184,-2.6168,-2.6155,-2.6132,-2.6104,-2.6084,-2.607,-2.606,-2.6056,-2.6074,-2.6059,-2.5999,-2.599,-2.598,-2.5979,-2.6073,-2.6073,-2.6124,-2.6125,-2.6125]},{"header":{"parameterUnit":"m.s-1","parameterCategory":1,"la1":30.2991,"la2":30.254,"lo1":-89.0895,"lo2":-89.0444,"dy":0.0017,"dx":0.0017,"nx":28,"ny":28,"refTime":"2023-08-20T21:00:00:Z","depth":0,"parameterNumber":3,"parameterNumberName":"V-component_of_WINDS"},"data":[0,0,0,0,0,0,0,0,0,0,0,0,0,0,0,0,0,0,0,0,0,0,0,0,0,0,0,0,0,0,0,0,0,0,0,0,0,0,0,0,0,0,0,0,0,0,0,0,0,0,0,0,0,0,0,0,0,0,3.2152,3.2152,0,3.2124,3.2124,3.2123,3.2137,3.2137,3.2138,3.2139,3.2102,3.2101,3.2099,0,0,0,0,0,0,0,0,0,0,0,0,0,3.221,3.2209,3.2152,3.2151,3.2151,3.2124,3.2123,3.2123,3.2137,3.2137,3.2138,3.2139,3.2103,3.2101,3.2099,0,0,0,0,0,0,0,0,0,0,0,0,0,3.2184,3.2209,3.2152,3.2155,3.2155,3.2124,3.2123,3.2123,3.2136,3.2138,3.2139,3.214,3.2103,3.2101,3.2098,3.2061,0,0,3.2091,3.209,0,0,0,0,0,0,0,0,3.2185,3.2181,3.2155,3.2155,3.2155,3.2135,3.2131,3.2102,3.2136,3.2143,3.2139,3.214,3.2112,3.2109,3.2101,3.2059,3.2057,3.2091,3.2089,3.2088,3.2087,0,0,0,0,0,0,0,3.2187,3.2183,3.2141,3.2154,3.2154,3.2155,3.2153,3.2125,3.2121,3.2143,3.2144,3.214,3.2112,3.2103,3.21,3.2057,3.2091,3.2088,3.2087,3.2086,3.1981,3.198,0,0,0,0,0,0,3.219,3.2184,3.2141,3.214,3.2173,3.2153,3.215,3.214,3.2122,3.212,3.214,3.2141,3.2107,3.2103,3.2099,3.2052,3.2088,3.2086,3.2084,3.1982,3.1981,3.1979,0,0,0,0,0,0,3.2191,3.2186,3.2143,3.2162,3.2157,3.2151,3.2139,3.2139,3.213,3.212,3.2118,3.2132,3.2107,3.2102,3.207,3.205,3.2085,3.2082,3.1984,3.1982,3.198,3.1958,0,0,0,0,0,0,3.2192,3.2186,3.2173,3.2162,3.2156,3.2117,3.2138,3.2138,3.2127,3.2129,3.2112,3.211,3.2108,3.2074,3.2068,3.2048,3.208,3.1986,3.1983,3.1981,3.196,3.1956,3.1951,0,0,0,0,0,3.2194,3.2167,3.2172,3.2167,3.214,3.2116,3.2112,3.2112,3.2125,3.2111,3.2104,3.211,3.2055,3.2071,3.2064,3.2042,3.1987,3.1984,3.1981,3.1962,3.1957,3.1952,0,0,0,0,0,0,3.2173,3.2165,3.2171,3.214,3.2129,3.2118,3.21,3.2106,3.2089,3.2091,3.2091,3.2087,3.2053,3.2045,3.2063,3.2004,3.2022,3.2018,3.201,3.2005,3.2,3.2001,3.2078,0,0,0,0,0,3.2165,3.2148,3.2142,3.2114,3.2108,3.2105,3.2095,3.2097,3.2084,3.2078,3.2069,3.2054,3.2033,3.2019,3.1999,3.1961,3.1955,3.1942,3.1938,3.1934,3.1929,3.1906,3.19,3.197,3.197,3.197,0,0,3.2147,3.2141,3.213,3.2109,3.2101,3.2081,3.2101,3.2079,3.2064,3.2074,3.2043,3.2036,3.202,3.1984,3.1968,3.1976,3.1909,3.1931,3.1928,3.1925,3.1902,3.1896,3.189,3.1968,3.1968,3.1969,0,0,3.2104,3.2099,3.2075,3.2067,3.2055,3.2053,3.2047,3.2036,3.2033,3.2003,3.201,3.1991,3.1955,3.1942,3.1931,3.1885,3.1889,3.1879,3.1853,3.1831,3.1825,3.182,3.1801,3.1794,3.1874,3.1874,3.1874,0,3.2082,3.2055,3.2061,3.2039,3.2029,3.2041,3.2015,3.2006,3.1987,3.1978,3.1989,3.1944,3.1934,3.1895,3.1884,3.1875,3.1866,3.1879,3.1826,3.1821,3.1817,3.1798,3.1791,3.1873,3.1873,3.1873,3.1873,0,3.2028,3.2009,3.1991,3.1975,3.1963,3.1939,3.1939,3.1926,3.1929,3.1925,3.1894,3.1883,3.186,3.1852,3.1853,3.1812,3.1817,3.1827,3.1844,3.1808,3.1791,3.1784,3.1871,3.1871,3.1872,3.1872,0,0,3.1967,3.1957,3.1949,3.1942,3.193,3.1914,3.1891,3.1871,3.1859,3.1846,3.1823,3.1794,3.1804,3.1791,3.1792,3.1773,3.1734,3.1785,3.1784,3.1773,3.1684,3.1674,3.1666,3.1738,3.1737,3.1736,3.1684,0,3.1921,3.1882,3.1887,3.1847,3.1828,3.1841,3.1819,3.1808,3.1805,3.1787,3.1782,3.176,3.1776,3.1768,3.175,3.1742,3.1715,3.1747,3.1713,3.1712,3.1714,3.1657,3.1646,3.1598,3.1678,3.1676,3.1676,0,3.1861,3.1849,3.1808,3.18,3.1792,3.1773,3.1755,3.1739,3.1726,3.1725,3.1712,3.1716,3.1689,3.1711,3.1672,3.1693,3.168,3.1675,3.1673,3.1666,3.1689,3.1646,3.1583,3.1574,3.1665,3.1666,3.1667,0,3.1817,3.1791,3.1763,3.1756,3.1746,3.1732,3.1727,3.1716,3.1704,3.1688,3.1679,3.166,3.1648,3.1632,3.163,3.1646,3.159,3.1611,3.1585,3.1584,3.1569,3.1569,3.1499,3.1567,3.1567,3.1567,3.1567,0,3.1763,3.1737,3.1743,3.1725,3.1696,3.1702,3.1671,3.1667,3.1658,3.1637,3.1647,3.1627,3.1628,3.1607,3.1605,3.1572,3.1567,3.1563,3.1562,3.156,3.156,3.1548,3.155,3.1565,3.1566,3.1566,3.1566,0,3.1707,3.1711,3.1681,3.1675,3.1672,3.1651,3.1644,3.1626,3.1625,3.1599,3.1593,3.159,3.1566,3.1564,3.1535,3.1534,3.1492,3.1497,3.1497,3.1496,3.1469,3.147,3.1386,3.1374,3.1453,3.1452,3.1452,0,3.1671,3.1651,3.1644,3.1633,3.1627,3.1609,3.1597,3.1602,3.1589,3.1574,3.1557,3.1535,3.1517,3.1478,3.1471,3.1449,3.145,3.1423,3.1447,3.1445,3.1446,3.1445,3.1442,3.1417,3.1416,3.1415,3.1414,0,3.1604,3.1608,3.1592,3.1577,3.1564,3.1551,3.154,3.1529,3.1533,3.1517,3.1495,3.1481,3.1454,3.143,3.1409,3.14,3.1406,3.1408,3.14,3.1395,3.1395,3.1391,3.148,3.1408,3.1409,3.141,3.141,3.141,3.1555,3.1537,3.153,3.1512,3.1505,3.1494,3.1477,3.1474,3.1456,3.1436,3.144,3.1414,3.1401,3.1373,3.1364,3.1341,3.135,3.1339,3.1336,3.1332,3.1328,3.1402,3.1338,3.1338,3.1338,3.1338,3.1338,0,3.1486,3.1482,3.1466,3.1451,3.1436,3.1449,3.1437,3.1422,3.14,3.1389,3.1373,3.1345,3.1323,3.1316,3.1293,3.1276,3.1278,3.127,3.1269,3.1266,3.1323,3.133,3.1269,3.1269,3.1269,3.1269,3.1269,3.1269,3.1448,3.1419,3.1421,3.1388,3.1384,3.136,3.1352,3.1341,3.1333,3.1303,3.1286,3.1283,3.1272,3.1249,3.1228,3.1226,3.1216,3.1205,3.1204,3.1256,3.1263,3.1269,3.1276,3.1204,3.1204,3.1149,3.1148,3.1148]}]]